Change the Weather History Date:

Thursday, June 28, 2012

  Actual Average Record
Temperature  
Mean Temperature 86 °F 82 °F  
Max Temperature 99 °F 92 °F 102 °F (2009)
Min Temperature 73 °F 72 °F 58 °F (1974)
Degree Days  
Heating Degree Days 0 0  
Month to date heating degree days 0 0  
Since 1 June heating degree days 0 0  
Since 1 July heating degree days 1535 2226  
Cooling Degree Days 21 17  
Month to date cooling degree days 486 411  
Year to date cooling degree days 1182 809  
Since 1 June cooling degree days 486 411  
Growing Degree Days 36 (Base 50)    
Moisture  
Dew Point 68 °F    
Average Humidity 60    
Maximum Humidity 84    
Minimum Humidity 35    
Precipitation  
Precipitation 0.00 in 0.17 in 6.61 in (1902)
Month to date precipitation 5.15 5.07  
Year to date precipitation 24.34 27.28  
Snow  
Snow 0.00 in - - ()
Month to date snowfall 0.0  
Since 1 June snowfall 0.0  
Since 1 July snowfall T  
Snow Depth 0.00 in    
Sea Level Pressure  
Sea Level Pressure 30.00 in    
Wind  
Wind Speed 4 mph (SSW)    
Max Wind Speed 13 mph    
Max Gust Speed 17 mph    
Visibility 8 miles    
Events      
T = Trace of Precipitation, MM = Missing Value Source: NWS Daily Summary

Daily Weather History Graph

Daily Weather History Graph

Search for Another Location

Airport or City:

Trip Planner

Search our weather history database for the weather conditions in past years. The results will help you decide how hot, cold, wet, or windy it might be!

Date:

Astronomy

Jun. 28, 2012 Rise Set
Actual Time 6:10 AM CDT 8:26 PM CDT
Civil Twilight 5:42 AM CDT 8:54 PM CDT
Nautical Twilight 5:07 AM CDT 9:29 PM CDT
Astronomical Twilight 4:29 AM CDT 10:07 PM CDT
Moon 3:10 PM CDT (6/28) 1:32 AM CDT (6/28)
Length of Visible Light 15h 12m
Length of Day
14h 15m
Waxing Gibbous, 67% of the Moon is Illuminated
Jun 28
Waxing Gibbous
Jul 3
Full
Jul 10
Last Quarter
Jul 18
New
Jul 26
First Quarter

Hourly Weather History & Observations

Time (CDT) Temp. Heat Index Dew Point Humidity Pressure Visibility Wind Dir Wind Speed Gust Speed Precip Events Conditions
12:56 AM 75.9 °F - 68.0 °F 76% 29.94 in 8.0 mi Calm Calm - N/A   Clear
1:56 AM 75.9 °F - 66.9 °F 74% 29.94 in 9.0 mi SW 3.5 mph - N/A   Clear
2:56 AM 75.9 °F - 66.9 °F 74% 29.94 in 8.0 mi Calm Calm - N/A   Clear
3:56 AM 75.0 °F - 66.9 °F 76% 29.95 in 8.0 mi Calm Calm - N/A   Clear
4:56 AM 73.9 °F - 66.9 °F 79% 29.97 in 7.0 mi Calm Calm - N/A   Clear
5:56 AM 73.0 °F - 68.0 °F 84% 29.99 in 7.0 mi Calm Calm - N/A   Clear
6:56 AM 75.0 °F - 70.0 °F 84% 30.01 in 5.0 mi Calm Calm - N/A   Haze
7:56 AM 79.0 °F - 72.0 °F 79% 30.03 in 6.0 mi South 4.6 mph - N/A   Haze
8:56 AM 82.9 °F 89.4 °F 73.9 °F 74% 30.04 in 6.0 mi SSW 6.9 mph - N/A   Haze
9:56 AM 87.1 °F 94.5 °F 73.0 °F 63% 30.04 in 8.0 mi WSW 3.5 mph - N/A   Clear
10:56 AM 91.9 °F 96.9 °F 69.1 °F 47% 30.05 in 10.0 mi SW 4.6 mph - N/A   Clear
11:56 AM 93.9 °F 97.5 °F 66.9 °F 41% 30.05 in 10.0 mi South 5.8 mph - N/A   Clear
12:56 PM 95.0 °F 99.0 °F 66.9 °F 40% 30.04 in 7.0 mi South 4.6 mph - N/A   Clear
1:56 PM 96.1 °F 99.9 °F 66.9 °F 38% 30.03 in 7.0 mi Variable 3.5 mph - N/A   Partly Cloudy
2:56 PM 98.1 °F 101.8 °F 66.0 °F 35% 30.02 in 10.0 mi South 8.1 mph - N/A   Scattered Clouds
3:56 PM 98.1 °F 102.4 °F 66.9 °F 36% 30.00 in 10.0 mi South 8.1 mph - N/A   Scattered Clouds
4:56 PM 97.0 °F 99.3 °F 64.0 °F 34% 29.99 in 10.0 mi Variable 3.5 mph - N/A   Partly Cloudy
5:56 PM 97.0 °F 99.9 °F 64.9 °F 35% 29.97 in 10.0 mi South 6.9 mph - N/A   Partly Cloudy
6:56 PM 95.0 °F 97.4 °F 64.9 °F 37% 29.97 in 10.0 mi South 5.8 mph - N/A   Clear
7:56 PM 91.4 °F 94.0 °F 66.2 °F 43% 29.98 in 10.0 mi SSW 4.6 mph - N/A   Clear
8:56 PM 86.0 °F 90.1 °F 69.1 °F 57% 29.97 in 10.0 mi South 3.5 mph - N/A   Clear
9:56 PM 82.9 °F 86.5 °F 69.1 °F 63% 29.98 in 10.0 mi Calm Calm - N/A   Clear
10:56 PM 82.0 °F 84.5 °F 66.9 °F 60% 29.99 in 10.0 mi SSW 5.8 mph - N/A   Clear
11:56 PM 81.0 °F 83.8 °F 68.0 °F 65% 29.99 in 10.0 mi SW 3.5 mph - N/A   Clear